• Em Portugal
  • Lista de países
  • Para 7 dias
  • Temperatura da água
  • Mapas de satélite
  • Mapa do tempo
  • Widgets de tempo
  • user-avatar
    Iniciar Sessão

    Previsão horária em Georgetown

    Hoje, 17 Outubro, Terça-feira

    Tempo Temperatura Precipitação Vento Pressão Humidade
    00:00 +32°C° 0 mm 7 m/s 735 mmHg 26%
    01:00 +31°C° 0 mm 8 m/s 735 mmHg 26%
    02:00 +31°C° 0 mm 8 m/s 735 mmHg 27%
    03:00 +29°C° 0 mm 8 m/s 735 mmHg 27%
    04:00 +29°C° 0 mm 8 m/s 735 mmHg 27%
    05:00 +29°C° 0 mm 8 m/s 735 mmHg 28%
    06:00 +29°C° 0 mm 8 m/s 735 mmHg 28%
    07:00 +29°C° 0 mm 8 m/s 736 mmHg 27%
    08:00 +32°C° 0 mm 8 m/s 736 mmHg 26%
    09:00 +33°C° 0 mm 8 m/s 736 mmHg 24%
    10:00 +35°C° 0 mm 8 m/s 736 mmHg 22%
    11:00 +36°C° 0 mm 7 m/s 736 mmHg 22%
    12:00 +38°C° 0 mm 6 m/s 735 mmHg 21%
    13:00 +39°C° 0 mm 5 m/s 734 mmHg 21%
    14:00 +38°C° 0 mm 4 m/s 734 mmHg 22%
    15:00 +38°C° 0 mm 4 m/s 734 mmHg 23%
    16:00 +38°C° 0 mm 3 m/s 733 mmHg 24%
    17:00 +37°C° 0 mm 4 m/s 734 mmHg 24%
    18:00 +36°C° 0 mm 4 m/s 734 mmHg 23%
    19:00 +34°C° 0 mm 5 m/s 734 mmHg 23%
    20:00 +34°C° 0 mm 5 m/s 734 mmHg 23%
    21:00 +33°C° 0 mm 6 m/s 735 mmHg 23%
    22:00 +33°C° 0 mm 7 m/s 735 mmHg 23%
    23:00 +32°C° 0 mm 7 m/s 735 mmHg 24%

    Amanhã, 18 Outubro, Quarta-feira

    Tempo Temperatura Precipitação Vento Pressão Humidade
    00:00 +32°C° 0 mm 7 m/s 735 mmHg 24%
    01:00 +30°C° 0 mm 7 m/s 734 mmHg 24%
    02:00 +30°C° 0 mm 7 m/s 734 mmHg 24%
    03:00 +30°C° 0 mm 7 m/s 734 mmHg 25%
    04:00 +29°C° 0 mm 7 m/s 734 mmHg 25%
    05:00 +29°C° 0 mm 7 m/s 734 mmHg 25%
    06:00 +29°C° 0 mm 8 m/s 734 mmHg 25%
    07:00 +29°C° 0 mm 8 m/s 735 mmHg 24%
    08:00 +32°C° 0 mm 8 m/s 735 mmHg 23%
    09:00 +34°C° 0 mm 7 m/s 735 mmHg 21%
    10:00 +36°C° 0 mm 7 m/s 736 mmHg 19%
    11:00 +36°C° 0 mm 6 m/s 735 mmHg 19%
    12:00 +37°C° 0 mm 5 m/s 734 mmHg 20%
    13:00 +38°C° 0 mm 4 m/s 733 mmHg 20%
    14:00 +38°C° 0 mm 3 m/s 733 mmHg 22%
    15:00 +37°C° 0 mm 3 m/s 732 mmHg 23%
    16:00 +37°C° 0 mm 2 m/s 732 mmHg 25%
    17:00 +36°C° 0 mm 3 m/s 732 mmHg 25%
    18:00 +34°C° 0 mm 3 m/s 733 mmHg 25%
    19:00 +33°C° 0 mm 4 m/s 733 mmHg 25%
    20:00 +33°C° 0 mm 4 m/s 733 mmHg 24%
    21:00 +32°C° 0 mm 5 m/s 734 mmHg 23%
    22:00 +32°C° 0 mm 5 m/s 734 mmHg 22%
    23:00 +32°C° 0 mm 6 m/s 734 mmHg 23%

    Depois de amanhã, 19 Outubro, Quinta-feira

    Tempo Temperatura Precipitação Vento Pressão Humidade
    00:00 +30°C° 0 mm 6 m/s 734 mmHg 23%
    01:00 +30°C° 0 mm 6 m/s 734 mmHg 24%
    02:00 +29°C° 0 mm 6 m/s 734 mmHg 24%
    03:00 +29°C° 0 mm 7 m/s 734 mmHg 24%
    04:00 +29°C° 0 mm 7 m/s 733 mmHg 24%
    05:00 +29°C° 0 mm 7 m/s 734 mmHg 24%
    06:00 +29°C° 0 mm 7 m/s 734 mmHg 25%
    07:00 +29°C° 0 mm 7 m/s 735 mmHg 25%
    08:00 +32°C° 0 mm 7 m/s 735 mmHg 23%
    09:00 +34°C° 0 mm 6 m/s 736 mmHg 22%
    10:00 +36°C° 0 mm 6 m/s 736 mmHg 20%
    11:00 +36°C° 0 mm 5 m/s 735 mmHg 21%
    12:00 +37°C° 0 mm 4 m/s 734 mmHg 21%
    13:00 +38°C° 0 mm 3 m/s 734 mmHg 22%
    14:00 +37°C° 0 mm 3 m/s 733 mmHg 23%
    15:00 +37°C° 0 mm 2 m/s 733 mmHg 24%
    16:00 +37°C° 0 mm 2 m/s 732 mmHg 25%
    17:00 +35°C° 0 mm 2 m/s 733 mmHg 27%
    18:00 +32°C° 0 mm 2 m/s 733 mmHg 28%
    19:00 +30°C° 0 mm 3 m/s 733 mmHg 30%
    20:00 +31°C° 0 mm 3 m/s 734 mmHg 28%
    21:00 +31°C° 0 mm 3 m/s 734 mmHg 25%
    22:00 +31°C° 0 mm 3 m/s 734 mmHg 23%
    23:00 +30°C° 0 mm 4 m/s 734 mmHg 23%

    20 Outubro, Sexta-feira

    Tempo Temperatura Precipitação Vento Pressão Humidade
    00:00 +30°C° 0 mm 4 m/s 734 mmHg 24%
    01:00 +30°C° 0 mm 5 m/s 734 mmHg 24%
    02:00 +29°C° 0 mm 5 m/s 734 mmHg 24%
    03:00 +29°C° 0 mm 6 m/s 733 mmHg 24%
    04:00 +29°C° 0 mm 6 m/s 733 mmHg 25%
    05:00 +29°C° 0 mm 7 m/s 734 mmHg 25%
    06:00 +29°C° 0 mm 7 m/s 734 mmHg 26%
    07:00 +29°C° 0 mm 7 m/s 735 mmHg 26%
    08:00 +32°C° 0 mm 7 m/s 735 mmHg 24%
    09:00 +34°C° 0 mm 7 m/s 735 mmHg 23%
    10:00 +36°C° 0 mm 6 m/s 736 mmHg 21%
    11:00 +37°C° 0 mm 5 m/s 735 mmHg 21%
    12:00 +37°C° 0 mm 4 m/s 734 mmHg 21%
    13:00 +38°C° 0 mm 3 m/s 733 mmHg 21%
    14:00 +38°C° 0 mm 3 m/s 733 mmHg 23%
    15:00 +38°C° 0 mm 2 m/s 732 mmHg 24%
    16:00 +38°C° 0 mm 2 m/s 732 mmHg 25%
    17:00 +36°C° 0 mm 2 m/s 732 mmHg 26%
    18:00 +34°C° 0 mm 2 m/s 733 mmHg 28%
    19:00 +31°C° 0 mm 2 m/s 733 mmHg 29%
    20:00 +31°C° 0 mm 3 m/s 733 mmHg 27%
    21:00 +31°C° 0 mm 3 m/s 734 mmHg 25%
    22:00 +32°C° 0 mm 4 m/s 734 mmHg 22%
    23:00 +30°C° 0 mm 4 m/s 734 mmHg 23%

    21 Outubro, Sábado

    Tempo Temperatura Precipitação Vento Pressão Humidade
    00:00 +30°C° 0 mm 5 m/s 734 mmHg 23%
    01:00 +30°C° 0 mm 5 m/s 733 mmHg 23%
    02:00 +29°C° 0 mm 6 m/s 733 mmHg 24%
    03:00 +29°C° 0 mm 6 m/s 733 mmHg 24%
    04:00 +29°C° 0 mm 7 m/s 733 mmHg 24%
    05:00 +29°C° 0 mm 7 m/s 734 mmHg 25%
    06:00 +29°C° 0 mm 7 m/s 734 mmHg 25%
    07:00 +29°C° 0 mm 7 m/s 735 mmHg 25%
    08:00 +32°C° 0 mm 7 m/s 735 mmHg 23%
    09:00 +34°C° 0 mm 6 m/s 735 mmHg 21%
    10:00 +36°C° 0 mm 6 m/s 735 mmHg 20%
    11:00 +37°C° 0 mm 5 m/s 735 mmHg 20%
    12:00 +37°C° 0 mm 4 m/s 734 mmHg 21%
    13:00 +38°C° 0 mm 2 m/s 733 mmHg 22%
    14:00 +38°C° 0 mm 2 m/s 733 mmHg 22%
    15:00 +38°C° 0 mm 2 m/s 732 mmHg 23%
    16:00 +38°C° 0 mm 2 m/s 732 mmHg 23%
    17:00 +36°C° 0 mm 2 m/s 732 mmHg 26%
    18:00 +34°C° 0 mm 3 m/s 733 mmHg 28%
    19:00 +31°C° 0 mm 3 m/s 733 mmHg 31%
    20:00 +30°C° 0 mm 3 m/s 733 mmHg 30%
    21:00 +30°C° 0 mm 3 m/s 734 mmHg 28%
    22:00 +30°C° 0 mm 3 m/s 734 mmHg 26%
    23:00 +29°C° 0 mm 4 m/s 734 mmHg 25%

    22 Outubro, Domingo

    Tempo Temperatura Precipitação Vento Pressão Humidade
    00:00 +29°C° 0 mm 4 m/s 733 mmHg 24%
    01:00 +29°C° 0 mm 4 m/s 733 mmHg 24%
    02:00 +29°C° 0 mm 5 m/s 733 mmHg 24%
    03:00 +29°C° 0 mm 5 m/s 733 mmHg 25%
    04:00 +29°C° 0 mm 5 m/s 733 mmHg 25%
    05:00 +29°C° 0 mm 5 m/s 734 mmHg 25%
    06:00 +29°C° 0 mm 6 m/s 734 mmHg 26%
    07:00 +29°C° 0 mm 6 m/s 734 mmHg 26%
    08:00 +32°C° 0 mm 5 m/s 735 mmHg 24%
    09:00 +35°C° 0 mm 5 m/s 735 mmHg 22%
    10:00 +37°C° 0 mm 5 m/s 735 mmHg 19%
    11:00 +37°C° 0 mm 4 m/s 734 mmHg 21%
    12:00 +38°C° 0 mm 3 m/s 733 mmHg 22%
    13:00 +38°C° 0 mm 2 m/s 733 mmHg 23%
    14:00 +38°C° 0 mm 2 m/s 732 mmHg 23%
    15:00 +38°C° 0 mm 3 m/s 732 mmHg 24%
    16:00 +38°C° 0 mm 3 m/s 732 mmHg 24%
    17:00 +36°C° 0 mm 3 m/s 732 mmHg 27%
    18:00 +34°C° 0 mm 3 m/s 732 mmHg 30%
    19:00 +31°C° 0 mm 3 m/s 733 mmHg 34%
    20:00 +30°C° 0 mm 3 m/s 733 mmHg 32%
    21:00 +30°C° 0 mm 3 m/s 733 mmHg 30%
    22:00 +29°C° 0 mm 3 m/s 733 mmHg 29%
    23:00 +29°C° 0 mm 4 m/s 733 mmHg 27%
    Mostrar mais